STARLINK-33995, 63706

Orbit data source: Space-Track

STARLINK-33995, 63706 is a payload satellite owned by SpaceX/Seattle (US) in LEO that was launched on Mon, 28 Apr 2025 UTC via an FALCON 9 launch vehicle from the Air Force Western Test Range (AFWTR). Payload-class satellites include a variety of spacecraft equipped with specific instruments for various scientific and technological missions. These include communications satellites like Starlink; space stations such as the ISS; scientific satellites like the Hubble; Earth observation satellites from companies like Planet Labs, Umbra, and HawkEye 360; GPS; miniature CubeSats for education and research; and military/defense satellites.

Loading next visibility...
Identifier
63706, 2025-087K
Orbit
LEO
Country
Flag of USUS
Related business
Manufacturer
SpaceX/Seattle
Mission
Operational Commercial Communications
Bus & Motor
STARLINK V2MO, Unknown motor
Mass
575 kg wet, ~530 kg dry
Launch date (UTC)
2025-04-28 (8 months ago)
Launch vehicle
FALCON 9
Launch site
Air Force Western Test Range (AFWTR)
Object type
Payload
Rocket body
Debris
Shape & HBR
Box + 2 Pan, 17.7 m
Radar Cross Section
36.964 m², Large (>1 m²)

Expand to show TLE details & history
Last TLE update: 6 hours ago

TLE from 6 hours ago
0 STARLINK-33995
1 63706U 25087K   25349.94505563  .00016873  00000-0  58035-3 0  9993
2 63706  53.1583 248.8462 0001440  44.8873 315.2244 15.30209953 36373
Epoch: 2025-12-15T22:40Z
TLE epoch observation values (Epoch: 2025-12-15T22:40:52.806Z)
Latitude
-0.00002°
Longitude
-176.21019°
Altitude
475.384 km
Speed
7.63 km/s
True Right ascension
16h 35m 23s
True Declination
0° 00' 00"
Sunlit
Object was in daylight at epoch
Visualization orbit readout
Latitude
Unknown
Longitude
Unknown
Altitude
Unknown
Speed
Unknown
Apparent Right ascension
Unknown
Apparent Declination
Unknown
Sunlit
N/A
Visualization observer readout
Local Sidereal Time
03:10:34
Azimuth
Unknown
Elevation
Unknown
Doppler factor
Unknown
Orbital elements
Apogee altitude
476.429 km
Perigee altitude
474.455 km
Semi-major axis
6,853.579 km
Eccentricity
0.00014
Inclination
53.1583°
RAAN
248.8462°
Arg. of periapsis
44.8873°
True anomaly
315.21278°
Mean anomaly
315.2244°
Eccentric anomaly
315.21859°
Mean motion
3.82531 °/min
Orbital period
94.11 mins
BSTAR
0.00058035
Loading maneuver chart data...
Computing Atmospheric mass density...
Loading historical data...
Loading historical data...
Loading historical data...
Loading historical data...
Loading historical data...
Loading historical data...
Loading historical data...

Documentation

Showing up to 5 results
|